Regional Weather Roundup
Issued by NWS

Home | Current Version | Previous Version | Text Only | Print | Product List | Glossary On
Versions: 1 2 3 4 5 6 7 8 9 10 11 12 13 14 15 16 17 18 19 20 21 22 23 24 25 26 27 28 29 30 31 32 33 34 35 36 37 38 39 40 41 42 43 44 45 46 47 48 49 50
000
ASUS43 KDTX 191410
RWRMI
MICHIGAN HOURLY REGIONAL WEATHER ROUNDUP
NATIONAL WEATHER SERVICE DETROIT/PONTIAC MI
900 AM EST THU JAN 19 2017

NOTE: "FAIR" INDICATES FEW OR NO CLOUDS BELOW 12,000 FEET WITH NO
SIGNIFICANT WEATHER AND/OR OBSTRUCTION TO VISIBILITY.

MIZ047>049-052>055-059>063-066>070-074>076-081>083-191500-
SOUTHEAST LOWER MICHIGAN

CITY           SKY/WX    TMP DP  RH WIND       PRES   REMARKS
ADRIAN         CLOUDY    32  31  96 W5        30.09R WCI  27
ALMA           CLOUDY    36  33  90 SW7       30.04R FOG     WCI  30
ANN ARBOR      CLOUDY    33  31  92 S5        30.06R WCI  29
BAD AXE        CLOUDY    32  32  99 SW7       30.04S FOG     WCI  26
CARO           CLOUDY   N/A N/A N/A SW10G17   30.04S HAZE
DETROIT CITY   CLOUDY    34  30  86 W3        30.07F
DETROIT        CLOUDY    34  30  85 W5        30.08S WCI  30
FLINT          CLOUDY    33  30  88 W5        30.06S WCI  29
GROSSE ILE     CLOUDY    33  31  92 SW3       30.07R FOG
HILLSDALE      CLOUDY    32  30  93 W3        30.04F FOG
HOWELL         CLOUDY    32  30  92 SW3       30.05R FOG

CITY           SKY/WX    TMP DP  RH WIND       PRES   REMARKS
JACKSON        CLOUDY    32  30  92 SW8       30.07R FOG     WCI  25
LAMBERTVILLE   CLOUDY    35  32  88 W6        30.09R FOG     WCI  30
LANSING        CLOUDY    33  29  85 SW12      30.06R WCI  24
LAPEER         CLOUDY    33  32  96 W6        30.05S WCI  27
MASON          CLOUDY    32  31  96 SW3       30.06R FOG
MONROE         CLOUDY    33  32  96 W5        30.07S FOG     WCI  29
MT. CLEMENS    CLOUDY    33  31  90 W6        30.05F WCI  28
PONTIAC        CLOUDY    32  28  85 W7        30.04S WCI  26
PORT HOPE        N/A     34  32  92 SW3       30.02S
PORT HURON     CLOUDY    32  30  93 SW3       30.09R
TRI CITIES     CLOUDY    35  33  92 SW8       30.05R FOG     WCI  29
MIDLAND        CLOUDY    36  32  87 SW6       30.04R FOG     WCI  31
TROY           CLOUDY    35  30  85 NW5       30.08S WCI  30
SAGINAW HB     CLOUDY    34  32  93 SW9       30.04S FOG     WCI  26
$$
MIZ043>046-050>051-056>058-064>065-071>073-077>080-191500-
SOUTHWEST LOWER MICHIGAN

CITY           SKY/WX    TMP DP  RH WIND       PRES   REMARKS
BATTLE CREEK   CLOUDY    33  32  96 SW5       30.06R FOG     WCI  29
BENTON HARBOR  CLOUDY    36  34  92 SE7       30.03F FOG     WCI  30
BIG RAPIDS     CLOUDY    33  32  95 SW3       30.01R FOG
COLDWATER      CLOUDY    33  33 100 CALM      30.05F FOG
FREMONT        CLOUDY    35  35  98 SW9       30.02R FOG     WCI  28
HOLLAND        CLOUDY    37  34  89 S7        30.04R WCI  32
GRAND RAPIDS   CLOUDY    36  33  89 S7        30.04R FOG     WCI  30
IONIA          CLOUDY    34  32  93 SW7       30.04R FOG     WCI  28
KALAMAZOO      CLOUDY    34  31  88 S5        30.05S FOG     WCI  30
LUDINGTON      CLOUDY    35  34  99 S8        30.00R FOG     WCI  28
MARSHALL       CLOUDY    33  32  96 SW5       30.06R WCI  28
MOUNT PLEASANT CLOUDY    35  33  93 W6        30.02R FOG     WCI  30
MUSKEGON       CLOUDY    38  35  89 S5        30.02S WCI  34
SOUTH HAVEN    CLOUDY    35  34  97 SE3       30.03F FOG
$$
MIZ016>042-191500-
NORTHERN LOWER MICHIGAN

CITY           SKY/WX    TMP DP  RH WIND       PRES   REMARKS
ALPENA         CLOUDY    35  30  82 S5        30.01S WCI  31
BEAVER ISLAND  CLOUDY    35  33  92 SW6       29.96S FOG     WCI  30
BELLAIRE       CLOUDY    35  33  92 SW6       29.99F FOG     WCI  30
CADILLAC       FOG       32  31  97 SW7       29.97R VSB<1/4 WCI  26
CHARLEVOIX     CLOUDY    36  34  95 S7        30.00S FOG     WCI  30
FRANKFORT      CLOUDY    35  34  97 S7        29.98S FOG     WCI  29
GAYLORD        FOG       34  30  85 SW7       29.96S VSB 3/4 WCI  28
GRAYLING       CLOUDY    34  32  94 SW3       29.99S FOG
HARBOR SPRINGS CLOUDY    35  33  93 SW5       29.98S FOG     WCI  31
HOUGHTON LAKE  CLOUDY    33  32  96 SW6       29.99S FOG     WCI  28
MANISTEE       CLOUDY    34  33  96 SE3       30.00R FOG
OSCODA         CLOUDY    35  33  92 CALM      30.01S FOG
PELLSTON       CLOUDY    36  31  82 S5        29.99R HAZE    WCI  32
ROGERS CITY    CLOUDY    35  32  89 CALM      30.02R FOG
TRAVERSE CITY  CLOUDY    36  32  85 S3        29.97F FOG
$$
MIZ007>008-015-191500-
EASTERN UPPER MICHIGAN

CITY           SKY/WX    TMP DP  RH WIND       PRES   REMARKS
KINROSS        CLOUDY    35  33  92 S9        29.96S FOG     WCI  28
MACKINAC ISLAN CLOUDY    34  34 100 S6        29.97S FOG     WCI  29
NEWBERRY       CLOUDY    32  32  99 S12       29.92S FOG     WCI  23
S. S. MARIE    CLOUDY    36  33  89 S6        29.96R FOG     WCI  31
MUNISING         N/A     29  27  92 S10       29.90S WCI  20
$$
MIZ004>006-011>014-085-191500-
CENTRAL UPPER MICHIGAN

CITY           SKY/WX    TMP DP  RH WIND       PRES   REMARKS
MANISTIQUE     FOG       30  29  98 S7        29.94S VSB 1/2 WCI  23
ESCANABA       FOG       30  30 100 S3        29.93S VSB 1/2
SAWYER-GWINN   FOG       27  25  93 W6        29.87S VSB 1/4 WCI  20
$$
MIZ001>003-009>011-084-191500-
WESTERN UPPER MICHIGAN

CITY           SKY/WX    TMP DP  RH WIND       PRES   REMARKS
IRON MOUNTAIN  CLOUDY    31  28  89 SE3       29.88F FOG
HOUGHTON       CLOUDY    25  22  88 CALM      29.83R FOG
COPPER HARBOR    N/A     30  27  88 SW8       29.84R WCI  22
IRONWOOD       CLOUDY    34  32  92 S8        29.83S FOG     WCI  27
$$

ABBREVIATIONS USED IN REMARKS
   TC - TEMPERATURE IN CELSIUS
  WCI - WIND CHILL INDEX
   HX - HEAT INDEX
  VSB - VISIBILITY




USA.gov is the U.S. government's official web portal to all federal, state and local government web resources and services.